SCP
0 0 0 0 0 0 0 0 0 0 0 0 0 0 -0 -0 -0 -0 0 0 0 0 0 -0 0 0 0 0 0 0 0 0 0 0 0 0 0 0 0 0 0 0 0 0 0 0 0
0 0 0 0 0 0 0 0 0 0 0 0 0 0 -0 -0 -0 -0 0 0 0 0 0 -0 -0 0 0 0 0 0 0 0 0 0 0 0 0 0 0 0 0 0 0 0 0 0 0
0 0 0 0 0 0 0 0 0 0 0 0 0 -0 -0 0 -0 0 -0 -0 -0 0 0 -0 -0 0 0 0 0 0 0 0 0 0 0 0 0 0 0 0 0 0 0 0 0 0 0
0 0 0 0 0 0 0 0 0 0 0 0 0 0 0 0 -0 0 0 0 0 -0 0 -0 -0 0 0 0 0 0 0 0 0 0 0 0 0 0 0 0 0 0 0 0 0 0 0
0 0 0 0 0 0 0 0 0 0 0 0 0 0 0 0 0 0 0 0 0 -0 -0 -0 -0 0 0 0 0 0 0 0 0 0 0 0 0 0 0 0 0 0 0 0 0 0 0
0 0 0 0 0 0 0 0 0 0 0 0 -0 -0 0 0 0 0 0 0 0 -0 -0 0 0 0 0 0 0 0 0 0 0 0 0 0 0 0 0 0 0 0 0 0 0 0 0
0 0 0 0 0 0 0 0 0 0 0 0 -0 -0 0 0 0 0 0 0 0 0 -0 -0 -0 0 0 0 0 0 0 0 0 0 0 0 0 0 0 0 0 0 0 0 0 0 0
0 0 0 0 0 0 0 0 0 0 0 0 0 0 0 0 0 0 0 0 0 0 0 -0 -0 0 0 0 0 0 0 0 0 0 0 0 0 0 0 0 0 0 0 0 0 0 0
0 0 0 0 0 0 0 0 0 0 0 0 0 0 0 -0 0 0 0 0 0 0 0 0 0 -0 0 0 0 0 0 0 0 0 0 0 0 0 0 0 0 0 0 0 0 0 0
0 0 0 0 0 0 0 0 0 0 0 0 0 0 0 -0 0 0 0 0 0 0 0 0 0 0 0 0 0 0 0 0 0 0 0 0 0 0 0 0 0 0 0 0 0 0 0
0 0 0 -0 -0 0 0 0 0 0 0 0 0 0 0 -0 0 0 0 0 -0 0 0 0 0 0 0 0 0 0 0 0 0 0 0 0 0 0 0 0 0 0 0 0 0 0 0
0 0 0 -0 -0 -0 0 0 0 0 0 0 0 0 0 0 0 0 0 0 0 0 0 0 0 0 0 0 0 0 0 0 0 0 0 0 0 0 0 0 0 0 0 0 0 0 0
0 -0 0 0 -0 -0 0 0 0 0 0 0 0 0 0 0 0 0 0 0 0 0 0 0 0 0 0 0 0 0 0 0 0 0 0 0 0 0 0 0 0 0 0 0 0 0 0
0 0 0 -0 0 -0 -0 0 0 0 0 0 0 0 0 0 0 0 0 0 -0 0 0 0 0 0 0 0 0 0 0 0 0 0 0 0 0 0 0 0 0 0 0 0 0 0 0
0 0 0 0 0 -0 -0 -0 0 0 0 0 0 0 0 0 0 0 0 -0 -0 0 0 0 0 0 0 0 0 0 0 0 0 0 0 0 0 0 0 0 0 0 0 0 0 0 0
0 0 0 0 0 -0 -0 -0 -0 -0 0 0 0 0 0 0 0 0 0 0 -0 0 0 0 0 0 0 0 0 0 0 0 0 0 0 0 0 0 0 0 0 0 0 0 0 0 0
0 0 0 0 0 0 0 0 -0 -0 0 0 0 0 0 0 0 0 0 0 0 0 0 0 0 0 0 0 0 0 0 0 0 0 0 0 0 0 0 0 0 0 0 0 0 0 0
0 0 0 0 0 0 0 0 0 -0 -0 0 0 0 0 0 0 0 0 0 0 0 0 0 0 0 0 0 0 0 0 0 0 0 0 0 0 0 0 0 0 0 0 0 0 0 0
0 0 0 0 0 0 0 0 0 -0 0 0 0 0 0 0 0 0 0 0 0 0 0 0 0 0 0 0 0 0 0 0 0 0 0 0 0 0 0 0 0 0 0 0 0 0 0
0 0 0 0 0 0 0 0 -0 -0 0 0 0 0 0 0 0 0 0 0 0 0 0 0 0 0 0 0 0 0 0 0 0 0 0 0 0 0 0 0 0 0 0 0 0 0 0
0 0 0 0 0 0 0 0 -0 -0 0 0 0 0 0 0 0 0 0 0 0 0 0 0 0 0 0 0 0 0 0 0 0 0 0 0 0 0 0 0 0 0 0 0 0 0 0
0 0 0 0 0 0 0 0 -0 -0 0 0 0 0 0 0 0 0 0 0 0 0 0 0 0 0 0 0 0 0 0 0 0 0 0 0 0 0 0 0 0 0 0 0 0 0 0
0 0 0 0 0 0 0 0 0 -0 0 0 0 0 0 0 0 0 0 0 0 0 0 0 0 0 0 0 0 0 0 -0 -0 0 0 0 0 0 0 0 0 0 0 0 0 0 0
0 0 0 0 0 0 0 0 0 -0 0 0 0 0 0 0 0 0 0 0 0 0 0 0 0 0 0 0 -0 0 0 0 0 0 0 0 0 0 -0 0 -0 0 0 0 0 0 0
0 0 0 0 0 0 0 0 0 0 0 0 0 0 0 0 0 0 0 0 0 0 0 0 0 0 0 0 -0 0 0 -0 -0 0 0 0 -0 -0 -0 -0 0 0 0 0 0 0 0
0 0 0 0 0 0 0 0 0 0 0 0 0 0 0 0 0 0 0 0 0 0 0 0 0 0 0 0 0 0 0 0 0 -0 0 0 0 -0 -0 -0 -0 0 0 0 0 0 0
0 0 0 0 0 0 0 0 0 0 0 0 0 0 0 0 0 0 0 0 0 0 0 0 -0 -0 -0 0 0 0 0 0 0 0 0 0 0 -0 -0 -0 0 0 -0 0 -0 -0 0
0 0 0 0 0 0 0 0 0 0 0 0 0 0 0 0 0 0 0 0 0 0 0 0 0 0 0 -0 -0 0 -0 -0 -0 -0 0 -0 0 -0 -0 -0 -0 0 0 0 0 0 0
0 0 0 0 0 0 0 0 0 0 0 0 0 0 0 0 0 0 0 0 0 0 0 0 0 0 0 0 -0 -0 -0 -0 -0 -0 -0 -0 -0 -0 0 -0 0 0 0 0 0 0 0
Wind_Speed_500mb
21 23 25 18 23 26 26 27 24 24 25 25 22 24 25 27 32 36 49 45 11 7 4 3 18 27 35 24 13 14 35 24 32 31 34 28 25 15 10 12 12 6 4 12 17 27 29
22 21 25 18 19 25 25 25 23 24 25 26 27 25 24 23 26 29 43 47 17 3 6 9 18 23 28 9 13 5 26 23 33 36 33 22 19 25 9 14 10 12 9 10 23 26 19
19 20 22 23 19 23 24 26 23 23 25 26 25 22 18 19 21 28 31 44 27 10 8 11 16 17 11 9 8 7 19 27 34 30 27 18 10 9 4 10 24 27 10 11 21 14 8
17 18 22 22 19 21 21 24 21 22 23 26 23 21 18 19 17 17 23 41 29 15 7 9 14 12 6 10 4 7 13 14 25 24 41 3 11 4 5 27 10 10 11 8 8 7 4
14 17 17 21 20 19 20 21 20 20 21 22 19 19 24 20 14 14 22 31 21 7 18 15 12 9 4 4 2 7 13 15 21 27 20 6 7 7 12 12 10 12 10 8 2 7 4
14 16 15 19 20 18 18 19 19 19 17 16 8 13 25 28 19 16 21 18 17 11 18 13 13 7 8 4 4 4 17 19 21 31 24 10 8 6 7 7 13 9 14 9 9 8 5
13 14 16 16 17 18 19 17 18 18 16 11 5 8 15 26 23 21 19 1 3 12 43 17 13 11 3 8 2 3 16 16 36 46 10 4 7 14 13 10 12 14 13 16 3 5 5
16 16 16 16 16 18 19 20 19 18 16 14 14 18 21 25 24 20 11 13 17 17 14 26 24 11 19 7 5 9 20 9 12 28 5 7 8 9 12 8 9 10 14 7 8 3 3
16 17 18 18 18 18 21 23 23 22 20 19 18 19 25 25 20 11 7 13 16 15 10 12 18 14 7 10 8 3 5 9 9 25 13 5 5 9 9 7 6 5 13 11 14 8 5
17 19 20 19 22 20 22 25 24 24 22 21 22 20 22 20 12 11 3 2 7 9 7 13 9 7 8 5 9 10 16 5 4 18 10 4 1 8 15 7 6 8 6 12 23 9 7
19 21 21 21 23 23 24 23 25 24 22 21 21 22 21 18 9 7 5 6 10 8 10 18 9 5 11 3 11 7 16 12 10 11 8 7 2 8 11 11 7 11 15 13 7 10 10
19 22 23 22 22 26 25 24 23 24 21 19 19 21 18 15 7 3 6 0 8 9 9 10 9 10 5 9 6 17 8 5 14 5 5 4 7 6 4 4 2 12 14 17 10 7 5
19 21 22 24 23 24 26 24 22 22 19 15 15 18 15 10 5 6 4 7 8 11 5 10 7 8 15 9 11 9 16 11 9 9 7 9 7 10 8 11 8 12 13 5 7 6 10
18 21 21 24 26 25 26 25 23 20 16 11 10 11 13 10 6 2 4 5 15 4 6 5 5 8 9 3 6 4 8 4 9 10 7 9 8 12 16 5 10 7 9 10 13 9 7
15 18 21 24 26 27 27 26 23 22 12 6 4 8 11 12 4 1 2 11 11 9 6 8 10 6 4 6 6 8 2 5 3 5 7 9 7 7 5 6 4 7 1 7 13 6 7
11 16 19 24 28 30 31 26 24 20 10 6 2 3 16 13 6 2 7 7 1 1 6 2 4 1 6 6 4 5 4 6 3 3 5 10 10 4 5 3 7 4 8 5 6 7 6
10 12 16 21 26 32 34 29 21 18 13 6 6 3 16 11 6 6 6 4 4 2 3 8 7 6 3 3 3 5 4 4 9 7 3 8 6 4 5 5 2 4 2 7 7 6 9
14 11 14 18 24 28 33 33 23 15 20 6 3 4 11 6 4 6 2 6 7 6 3 2 2 5 5 4 6 4 6 2 9 2 5 2 8 6 2 3 2 3 3 7 8 7 3
18 15 12 14 20 25 29 33 28 17 16 7 2 4 4 6 5 3 4 4 2 3 3 1 2 2 3 3 6 5 4 5 5 5 4 5 4 6 7 6 4 5 7 6 8 5 7
20 18 14 12 15 20 26 29 29 23 15 6 1 4 3 4 7 11 5 3 2 3 2 1 4 3 3 4 8 6 3 5 12 9 4 4 3 8 10 7 5 8 8 8 9 6 7
20 18 16 14 14 15 21 24 27 26 13 3 4 1 3 1 5 4 4 2 5 2 3 3 4 4 5 5 4 6 2 5 7 4 3 4 6 3 4 4 1 4 7 13 12 7 10
22 19 19 14 13 12 15 19 23 26 13 7 2 2 3 3 2 5 7 1 4 3 5 5 6 7 4 8 3 9 10 6 7 2 3 5 4 5 3 6 6 7 11 13 10 7 5
28 21 19 17 12 10 11 14 18 20 17 5 4 2 1 2 2 5 5 2 4 9 4 8 2 6 9 5 7 11 12 12 9 10 6 5 9 5 5 6 9 13 18 20 11 10 15
33 27 19 18 14 10 8 11 14 17 17 14 8 2 0 1 3 3 4 4 5 1 8 3 9 6 7 11 14 16 24 24 23 18 7 9 8 4 4 4 1 8 3 9 14 11 15
36 31 22 18 16 13 8 6 10 12 13 12 13 4 2 2 0 3 6 7 10 7 5 5 6 5 14 6 7 7 8 6 9 9 12 8 8 5 6 5 12 2 7 9 13 15 17
32 33 28 22 18 16 11 6 4 7 9 8 9 9 2 8 4 2 3 8 6 4 4 2 8 14 7 6 5 6 7 5 3 3 10 8 10 7 4 3 9 4 2 7 6 10 14
37 31 34 27 21 17 15 10 6 4 4 6 6 8 2 1 4 4 5 6 8 6 5 4 8 7 5 4 3 6 6 7 7 11 8 3 4 8 4 6 15 11 10 11 6 10 16
33 33 35 30 24 20 16 12 9 8 6 3 2 7 6 4 5 5 6 7 7 8 7 12 7 3 5 5 6 6 5 9 4 9 11 13 12 8 5 5 13 18 8 13 6 19 24
36 30 27 35 29 23 18 14 10 10 8 6 2 6 7 6 5 8 9 11 11 9 10 19 2 7 10 6 2 4 4 2 6 5 3 6 12 8 16 11 6 31 3 11 20 30 25
Wind_Direction_500mb
353 0 3 1 353 354 358 355 357 356 347 351 354 353 353 357 1 360 6 357 359 322 359 177 179 180 174 179 230 219 190 195 195 204 178 162 165 178 167 160 129 96 196 71 45 90 85
349 0 2 357 358 3 1 356 356 359 356 0 357 356 1 359 2 357 7 12 14 38 102 127 159 158 179 192 236 65 182 186 182 190 177 160 167 192 173 160 134 129 85 75 50 55 67
351 358 1 359 356 4 3 358 358 1 359 357 351 356 1 358 357 4 21 21 23 11 103 131 150 163 158 235 263 98 158 184 171 161 175 186 179 187 44 114 135 130 77 24 23 28 72
352 353 1 3 358 4 3 2 1 3 358 358 353 4 360 359 1 359 4 9 8 6 117 120 125 139 48 105 233 165 155 157 163 159 198 350 198 242 206 129 87 95 61 110 319 6 34
346 353 357 357 2 3 8 3 3 5 3 358 11 38 33 15 352 326 318 342 13 42 103 109 111 121 6 174 48 146 149 135 136 176 187 308 191 207 142 101 45 19 134 102 60 5 108
340 347 354 356 4 3 5 4 1 4 2 357 9 29 31 26 14 335 311 339 49 59 108 98 81 81 21 13 32 110 165 140 126 147 243 260 189 103 64 96 180 160 107 91 145 219 61
325 334 346 335 352 2 355 359 354 360 356 343 287 330 359 7 3 350 356 107 342 32 62 51 47 79 55 105 58 68 139 145 133 159 217 282 101 169 158 169 157 123 120 114 58 250 102
321 329 334 336 334 340 341 341 339 344 347 334 292 284 303 326 341 357 30 78 91 125 59 61 52 44 67 101 58 80 134 135 149 156 76 339 152 208 160 106 89 93 117 92 65 147 57
330 320 323 328 333 342 335 329 325 320 327 326 318 305 301 305 304 309 49 106 98 132 92 25 29 348 26 66 62 77 38 104 131 132 204 183 196 141 134 116 128 136 151 166 144 148 21
340 330 320 322 328 335 332 329 331 330 322 313 312 313 312 320 283 295 306 342 188 144 83 358 345 17 39 85 65 110 135 76 49 156 209 62 334 157 133 127 120 164 169 130 131 107 174
348 342 331 327 326 331 330 332 335 337 334 327 316 319 322 325 294 263 289 322 182 163 54 340 332 54 86 17 117 70 180 49 142 159 108 245 270 122 113 151 158 190 133 129 123 100 100
346 345 346 340 335 328 330 331 337 342 341 342 328 329 331 332 307 263 304 124 164 39 19 1 358 5 115 91 168 128 145 114 164 86 126 129 45 53 124 95 125 127 86 47 50 79 43
346 346 346 351 352 335 333 331 338 339 343 352 341 341 350 3 326 301 292 159 34 77 300 4 17 45 72 68 56 119 132 135 148 130 40 15 14 328 47 84 30 81 74 30 20 17 204
346 352 356 355 1 358 347 337 339 342 341 359 2 355 10 28 8 28 181 50 64 335 95 125 128 6 56 261 103 78 84 87 32 85 82 109 352 0 335 67 159 77 132 151 167 172 210
338 354 1 359 2 3 1 347 346 342 344 10 354 2 16 13 17 115 206 50 172 198 181 157 165 213 274 215 147 168 39 56 97 103 113 130 354 306 16 345 63 176 355 163 110 38 75
327 342 357 359 2 3 6 360 351 351 357 20 99 313 14 357 354 83 76 123 16 152 134 170 130 91 80 353 121 100 53 319 109 191 177 189 87 344 311 6 36 99 144 68 0 127 199
292 323 343 355 1 359 7 8 7 7 7 28 83 120 5 16 46 55 106 177 126 230 246 192 202 116 140 179 9 57 49 27 351 312 167 141 92 287 47 43 189 29 35 61 117 114 150
269 298 327 348 354 1 3 10 13 7 7 7 68 54 8 19 64 33 111 167 148 191 220 273 26 77 169 26 59 90 132 101 349 274 30 73 105 105 154 261 182 226 236 141 116 220 92
255 272 302 337 349 358 2 7 12 4 358 1 72 98 24 29 103 343 277 35 43 154 196 191 110 66 6 85 92 73 68 6 17 60 42 31 41 79 2 356 2 231 210 153 113 77 198
257 257 282 313 339 356 1 4 10 8 1 11 353 47 82 88 79 132 162 158 59 12 297 266 146 116 91 55 42 122 68 1 5 85 66 65 74 154 189 212 139 190 199 178 128 115 175
254 254 263 291 317 347 2 1 8 12 11 63 19 221 118 320 1 88 98 153 130 9 343 357 51 78 178 120 101 111 89 3 13 34 62 89 127 89 346 12 61 241 197 189 182 180 161
235 255 254 265 292 332 355 359 11 15 19 42 89 125 136 123 303 73 5 71 142 131 36 347 97 29 10 114 191 174 136 191 204 98 98 22 152 104 298 334 353 290 252 213 216 222 246
227 239 258 251 268 303 335 352 13 25 29 55 75 107 243 359 56 92 209 184 136 129 74 66 40 99 60 92 67 77 97 111 163 147 147 103 130 106 242 358 336 293 218 193 195 200 164
228 225 240 262 246 273 312 344 1 24 37 43 39 86 255 258 120 202 187 124 127 71 157 43 62 101 130 126 106 85 72 75 70 46 53 132 106 96 192 17 293 256 167 205 192 200 204
227 223 228 248 256 240 271 324 352 9 29 34 28 34 40 117 337 29 116 113 116 79 69 87 55 106 139 117 67 43 354 19 20 32 15 52 115 89 131 213 289 230 206 154 168 263 190
235 217 222 228 251 242 238 264 325 359 9 19 21 23 37 129 255 177 168 174 159 132 32 56 137 147 138 84 87 154 207 219 235 339 8 66 71 117 138 209 236 229 214 153 129 289 180
228 231 216 221 233 254 229 240 266 304 355 17 9 7 8 163 167 174 185 182 157 134 123 148 165 163 167 98 137 177 238 160 175 178 171 104 32 166 171 247 282 237 184 146 124 243 171
225 231 220 215 224 238 252 226 251 272 296 341 353 353 356 300 231 234 219 195 173 178 151 155 106 226 78 144 160 211 174 221 148 176 178 171 153 194 137 209 289 169 114 168 202 146 150
224 221 220 212 217 231 247 237 223 251 268 297 308 320 319 285 264 237 255 238 221 205 171 171 200 170 190 102 202 113 208 132 176 245 139 221 189 183 189 214 267 192 203 201 163 165 171
Wind_Speed_850mb
21 23 25 18 23 26 26 27 24 24 25 25 22 24 25 27 32 36 49 45 11 7 4 3 18 27 35 24 13 14 35 24 32 31 34 28 25 15 10 12 12 6 4 12 17 27 29
22 21 25 18 19 25 25 25 23 24 25 26 27 25 24 23 26 29 43 47 17 3 6 9 18 23 28 9 13 5 26 23 33 36 33 22 19 25 9 14 10 12 9 10 23 26 19
19 20 22 23 19 23 24 26 23 23 25 26 25 22 18 19 21 28 31 44 27 10 8 11 16 17 11 9 8 7 19 27 34 30 27 18 10 9 4 10 24 27 10 11 21 14 8
17 18 22 22 19 21 21 24 21 22 23 26 23 21 18 19 17 17 23 41 29 15 7 9 14 12 6 10 4 7 13 14 25 24 41 3 11 4 5 27 10 10 11 8 8 7 4
14 17 17 21 20 19 20 21 20 20 21 22 19 19 24 20 14 14 22 31 21 7 18 15 12 9 4 4 2 7 13 15 21 27 20 6 7 7 12 12 10 12 10 8 2 7 4
14 16 15 19 20 18 18 19 19 19 17 16 8 13 25 28 19 16 21 18 17 11 18 13 13 7 8 4 4 4 17 19 21 31 24 10 8 6 7 7 13 9 14 9 9 8 5
13 14 16 16 17 18 19 17 18 18 16 11 5 8 15 26 23 21 19 1 3 12 43 17 13 11 3 8 2 3 16 16 36 46 10 4 7 14 13 10 12 14 13 16 3 5 5
16 16 16 16 16 18 19 20 19 18 16 14 14 18 21 25 24 20 11 13 17 17 14 26 24 11 19 7 5 9 20 9 12 28 5 7 8 9 12 8 9 10 14 7 8 3 3
16 17 18 18 18 18 21 23 23 22 20 19 18 19 25 25 20 11 7 13 16 15 10 12 18 14 7 10 8 3 5 9 9 25 13 5 5 9 9 7 6 5 13 11 14 8 5
17 19 20 19 22 20 22 25 24 24 22 21 22 20 22 20 12 11 3 2 7 9 7 13 9 7 8 5 9 10 16 5 4 18 10 4 1 8 15 7 6 8 6 12 23 9 7
19 21 21 21 23 23 24 23 25 24 22 21 21 22 21 18 9 7 5 6 10 8 10 18 9 5 11 3 11 7 16 12 10 11 8 7 2 8 11 11 7 11 15 13 7 10 10
19 22 23 22 22 26 25 24 23 24 21 19 19 21 18 15 7 3 6 0 8 9 9 10 9 10 5 9 6 17 8 5 14 5 5 4 7 6 4 4 2 12 14 17 10 7 5
19 21 22 24 23 24 26 24 22 22 19 15 15 18 15 10 5 6 4 7 8 11 5 10 7 8 15 9 11 9 16 11 9 9 7 9 7 10 8 11 8 12 13 5 7 6 10
18 21 21 24 26 25 26 25 23 20 16 11 10 11 13 10 6 2 4 5 15 4 6 5 5 8 9 3 6 4 8 4 9 10 7 9 8 12 16 5 10 7 9 10 13 9 7
15 18 21 24 26 27 27 26 23 22 12 6 4 8 11 12 4 1 2 11 11 9 6 8 10 6 4 6 6 8 2 5 3 5 7 9 7 7 5 6 4 7 1 7 13 6 7
11 16 19 24 28 30 31 26 24 20 10 6 2 3 16 13 6 2 7 7 1 1 6 2 4 1 6 6 4 5 4 6 3 3 5 10 10 4 5 3 7 4 8 5 6 7 6
10 12 16 21 26 32 34 29 21 18 13 6 6 3 16 11 6 6 6 4 4 2 3 8 7 6 3 3 3 5 4 4 9 7 3 8 6 4 5 5 2 4 2 7 7 6 9
14 11 14 18 24 28 33 33 23 15 20 6 3 4 11 6 4 6 2 6 7 6 3 2 2 5 5 4 6 4 6 2 9 2 5 2 8 6 2 3 2 3 3 7 8 7 3
18 15 12 14 20 25 29 33 28 17 16 7 2 4 4 6 5 3 4 4 2 3 3 1 2 2 3 3 6 5 4 5 5 5 4 5 4 6 7 6 4 5 7 6 8 5 7
20 18 14 12 15 20 26 29 29 23 15 6 1 4 3 4 7 11 5 3 2 3 2 1 4 3 3 4 8 6 3 5 12 9 4 4 3 8 10 7 5 8 8 8 9 6 7
20 18 16 14 14 15 21 24 27 26 13 3 4 1 3 1 5 4 4 2 5 2 3 3 4 4 5 5 4 6 2 5 7 4 3 4 6 3 4 4 1 4 7 13 12 7 10
22 19 19 14 13 12 15 19 23 26 13 7 2 2 3 3 2 5 7 1 4 3 5 5 6 7 4 8 3 9 10 6 7 2 3 5 4 5 3 6 6 7 11 13 10 7 5
28 21 19 17 12 10 11 14 18 20 17 5 4 2 1 2 2 5 5 2 4 9 4 8 2 6 9 5 7 11 12 12 9 10 6 5 9 5 5 6 9 13 18 20 11 10 15
33 27 19 18 14 10 8 11 14 17 17 14 8 2 0 1 3 3 4 4 5 1 8 3 9 6 7 11 14 16 24 24 23 18 7 9 8 4 4 4 1 8 3 9 14 11 15
36 31 22 18 16 13 8 6 10 12 13 12 13 4 2 2 0 3 6 7 10 7 5 5 6 5 14 6 7 7 8 6 9 9 12 8 8 5 6 5 12 2 7 9 13 15 17
32 33 28 22 18 16 11 6 4 7 9 8 9 9 2 8 4 2 3 8 6 4 4 2 8 14 7 6 5 6 7 5 3 3 10 8 10 7 4 3 9 4 2 7 6 10 14
37 31 34 27 21 17 15 10 6 4 4 6 6 8 2 1 4 4 5 6 8 6 5 4 8 7 5 4 3 6 6 7 7 11 8 3 4 8 4 6 15 11 10 11 6 10 16
33 33 35 30 24 20 16 12 9 8 6 3 2 7 6 4 5 5 6 7 7 8 7 12 7 3 5 5 6 6 5 9 4 9 11 13 12 8 5 5 13 18 8 13 6 19 24
36 30 27 35 29 23 18 14 10 10 8 6 2 6 7 6 5 8 9 11 11 9 10 19 2 7 10 6 2 4 4 2 6 5 3 6 12 8 16 11 6 31 3 11 20 30 25
Wind_Direction_850mb
353 0 3 1 353 354 358 355 357 356 347 351 354 353 353 357 1 360 6 357 359 322 359 177 179 180 174 179 230 219 190 195 195 204 178 162 165 178 167 160 129 96 196 71 45 90 85
349 0 2 357 358 3 1 356 356 359 356 0 357 356 1 359 2 357 7 12 14 38 102 127 159 158 179 192 236 65 182 186 182 190 177 160 167 192 173 160 134 129 85 75 50 55 67
351 358 1 359 356 4 3 358 358 1 359 357 351 356 1 358 357 4 21 21 23 11 103 131 150 163 158 235 263 98 158 184 171 161 175 186 179 187 44 114 135 130 77 24 23 28 72
352 353 1 3 358 4 3 2 1 3 358 358 353 4 360 359 1 359 4 9 8 6 117 120 125 139 48 105 233 165 155 157 163 159 198 350 198 242 206 129 87 95 61 110 319 6 34
346 353 357 357 2 3 8 3 3 5 3 358 11 38 33 15 352 326 318 342 13 42 103 109 111 121 6 174 48 146 149 135 136 176 187 308 191 207 142 101 45 19 134 102 60 5 108
340 347 354 356 4 3 5 4 1 4 2 357 9 29 31 26 14 335 311 339 49 59 108 98 81 81 21 13 32 110 165 140 126 147 243 260 189 103 64 96 180 160 107 91 145 219 61
325 334 346 335 352 2 355 359 354 360 356 343 287 330 359 7 3 350 356 107 342 32 62 51 47 79 55 105 58 68 139 145 133 159 217 282 101 169 158 169 157 123 120 114 58 250 102
321 329 334 336 334 340 341 341 339 344 347 334 292 284 303 326 341 357 30 78 91 125 59 61 52 44 67 101 58 80 134 135 149 156 76 339 152 208 160 106 89 93 117 92 65 147 57
330 320 323 328 333 342 335 329 325 320 327 326 318 305 301 305 304 309 49 106 98 132 92 25 29 348 26 66 62 77 38 104 131 132 204 183 196 141 134 116 128 136 151 166 144 148 21
340 330 320 322 328 335 332 329 331 330 322 313 312 313 312 320 283 295 306 342 188 144 83 358 345 17 39 85 65 110 135 76 49 156 209 62 334 157 133 127 120 164 169 130 131 107 174
348 342 331 327 326 331 330 332 335 337 334 327 316 319 322 325 294 263 289 322 182 163 54 340 332 54 86 17 117 70 180 49 142 159 108 245 270 122 113 151 158 190 133 129 123 100 100
346 345 346 340 335 328 330 331 337 342 341 342 328 329 331 332 307 263 304 124 164 39 19 1 358 5 115 91 168 128 145 114 164 86 126 129 45 53 124 95 125 127 86 47 50 79 43
346 346 346 351 352 335 333 331 338 339 343 352 341 341 350 3 326 301 292 159 34 77 300 4 17 45 72 68 56 119 132 135 148 130 40 15 14 328 47 84 30 81 74 30 20 17 204
346 352 356 355 1 358 347 337 339 342 341 359 2 355 10 28 8 28 181 50 64 335 95 125 128 6 56 261 103 78 84 87 32 85 82 109 352 0 335 67 159 77 132 151 167 172 210
338 354 1 359 2 3 1 347 346 342 344 10 354 2 16 13 17 115 206 50 172 198 181 157 165 213 274 215 147 168 39 56 97 103 113 130 354 306 16 345 63 176 355 163 110 38 75
327 342 357 359 2 3 6 360 351 351 357 20 99 313 14 357 354 83 76 123 16 152 134 170 130 91 80 353 121 100 53 319 109 191 177 189 87 344 311 6 36 99 144 68 0 127 199
292 323 343 355 1 359 7 8 7 7 7 28 83 120 5 16 46 55 106 177 126 230 246 192 202 116 140 179 9 57 49 27 351 312 167 141 92 287 47 43 189 29 35 61 117 114 150
269 298 327 348 354 1 3 10 13 7 7 7 68 54 8 19 64 33 111 167 148 191 220 273 26 77 169 26 59 90 132 101 349 274 30 73 105 105 154 261 182 226 236 141 116 220 92
255 272 302 337 349 358 2 7 12 4 358 1 72 98 24 29 103 343 277 35 43 154 196 191 110 66 6 85 92 73 68 6 17 60 42 31 41 79 2 356 2 231 210 153 113 77 198
257 257 282 313 339 356 1 4 10 8 1 11 353 47 82 88 79 132 162 158 59 12 297 266 146 116 91 55 42 122 68 1 5 85 66 65 74 154 189 212 139 190 199 178 128 115 175
254 254 263 291 317 347 2 1 8 12 11 63 19 221 118 320 1 88 98 153 130 9 343 357 51 78 178 120 101 111 89 3 13 34 62 89 127 89 346 12 61 241 197 189 182 180 161
235 255 254 265 292 332 355 359 11 15 19 42 89 125 136 123 303 73 5 71 142 131 36 347 97 29 10 114 191 174 136 191 204 98 98 22 152 104 298 334 353 290 252 213 216 222 246
227 239 258 251 268 303 335 352 13 25 29 55 75 107 243 359 56 92 209 184 136 129 74 66 40 99 60 92 67 77 97 111 163 147 147 103 130 106 242 358 336 293 218 193 195 200 164
228 225 240 262 246 273 312 344 1 24 37 43 39 86 255 258 120 202 187 124 127 71 157 43 62 101 130 126 106 85 72 75 70 46 53 132 106 96 192 17 293 256 167 205 192 200 204
227 223 228 248 256 240 271 324 352 9 29 34 28 34 40 117 337 29 116 113 116 79 69 87 55 106 139 117 67 43 354 19 20 32 15 52 115 89 131 213 289 230 206 154 168 263 190
235 217 222 228 251 242 238 264 325 359 9 19 21 23 37 129 255 177 168 174 159 132 32 56 137 147 138 84 87 154 207 219 235 339 8 66 71 117 138 209 236 229 214 153 129 289 180
228 231 216 221 233 254 229 240 266 304 355 17 9 7 8 163 167 174 185 182 157 134 123 148 165 163 167 98 137 177 238 160 175 178 171 104 32 166 171 247 282 237 184 146 124 243 171
225 231 220 215 224 238 252 226 251 272 296 341 353 353 356 300 231 234 219 195 173 178 151 155 106 226 78 144 160 211 174 221 148 176 178 171 153 194 137 209 289 169 114 168 202 146 150
224 221 220 212 217 231 247 237 223 251 268 297 308 320 319 285 264 237 255 238 221 205 171 171 200 170 190 102 202 113 208 132 176 245 139 221 189 183 189 214 267 192 203 201 163 165 171